Location: Obersdorf
(47.4079°N, 10.2781°E)
Time: 11:22:03
(UTC+01:00)

XW-2C - Pass Details

Date: 06 December 2021
Orbit: 503 x 523 km, 97.5° (Epoch: 15 January)

Event Time Altitude Azimuth Distance (km) Brightness Sun altitude
Rises 05:48:19 0° 21° (NNE) 2,669 ? -19.9°
Reaches altitude 10° 05:50:36 10° 32° (NNE) 1,775 ? -19.5°
Maximum altitude 05:54:04 32° 96° (E) 922 ? -19.0°
Drops below altitude 10° 05:57:30 10° 161° (SSE) 1,759 ? -18.4°
Sets 05:59:45 0° 171° (S) 2,640 ? -18.0°
